Location: Pl�tzky
(52.0521°N, 11.8020°E)
Time: 09:48:38
(UTC+00:00)

USA 229 - Pass Details

Date: 21 February 2020
Orbit: 986 x 1226 km, 63.4° (Epoch: 26 March)

Event Time Altitude Azimuth Distance (km) Brightness Sun altitude
Rises 19:55:48 0° 254° (WSW) 3,750 7.2 -30.7°
Reaches altitude 10° 19:58:28 10° 261° (W) 2,827 6.5 -31.1°
Maximum altitude 20:04:52 46° 334° (NNW) 1,405 4.5 -32.0°
Enters shadow 20:07:45 31° 25° (NNE) 1,816 4.8 -32.4°
